カタログに戻る

DELTA 1 DEB

運用中PO
NORAD 7838·DEBRIS·🇺🇸 United States

打ち上げ Jul 23, 1972 から Vandenberg Space Force Base

Loading…

次のパス (今後24時間)

TLE

最新Source: Space-Track

元期: Sep 14, 2026, 04:28 UTC

1 07838U 72058J   26257.18650890  .00001355  00000-0  60661-3 0  9993
2 07838  98.1236 344.8941 0300553 236.0064 121.2218 14.02754122582502

AllMySatでDELTA 1 DEBをリアルタイム追跡

Download on the App Store